Regional Weather Roundup
Issued by NWS Charleston, SC

Current Version | Previous Version | Text Only | Print | Product List | Glossary Off
Versions: 1 2 3 4 5 6 7 8 9 10 11 12 13 14 15 16 17 18 19 20 21 22 23 24 25 26 27 28 29 30 31 32 33 34 35 36 37 38 39 40 41 42 43 44 45 46 47 48 49 50
763 ASUS42 KCHS 240743 RWRCHS REGIONAL WEATHER ROUNDUP NATIONAL WEATHER SERVICE CHARLESTON SC 300 AM EDT SUN SEP 24 2017 NOTE: "FAIR" INDICATES FEW OR NO CLOUDS BELOW 12,000 FEET WITH NO SIGNIFICANT WEATHER AND/OR OBSTRUCTIONS TO VISIBILITY. NOT ALL STATIONS ARE QUALITY CONTROLLED. USE DATA WITH CAUTION... ESPECIALLY DEWPOINT OBSERVATIONS. SCZ027-030-031-034>040-042>050-240800- ...SOUTHEAST SOUTH CAROLINA... CITY SKY/WX TMP DP RH WIND PRES REMARKS N CHARLESTON PTCLDY 70 69 97 NE5 29.97F WATERFRONT PRK N/A 76 73 90 NE7 29.81F JOHNS ISLAND FAIR 73 72 94 N5 29.97S PINOPOLIS N/A 75 72 88 NE7 29.91F MONCKS CORNER FAIR 68 66 94 NE3 29.98F SUMMERVILLE FAIR 68 66 94 CALM 29.99F BEAUFORT MCAS CLEAR 73 72 96 NE6 29.97S BEAUFORT ARPT FAIR 73 72 94 N7 29.97R HILTON HEAD IS CLEAR 77 73 88 N7 29.97S WALTERBORO SUNNY 66 64 94 N3 30.00R ALLENDALE NOT AVBL ...SOUTHERN MIDLANDS AND PEE DEE... CITY SKY/WX TMP DP RH WIND PRES REMARKS GEORGETOWN FAIR 68 66 94 NE6 30.00S KINGSTREE FAIR 63 61 94 CALM 30.01S ORANGEBURG CLEAR 68 66 93 N3 30.00F BARNWELL FAIR 66 66 100 CALM 30.01S AIKEN FAIR 63 63 100 CALM 30.05F MANNING FAIR 64 59 82 MISG 30.00F HAZE COLUMBIA CLEAR 67 62 84 CALM 30.01S SUMTER CLEAR 66 60 81 NE5 29.99F FLORENCE CLEAR 67 63 87 N3 30.02S MYRTLE BEACH PTCLDY 71 69 93 N7 30.01S N MYRTLE BEACH CLEAR 71 69 93 NE7 29.99S $$ GAZ063-065-086>088-099>101-113>116-118-119-134>141-150-240800- ...SOUTHEAST GEORGIA... CITY SKY/WX TMP DP RH WIND PRES REMARKS SAVANNAH ARPT CLEAR 70 70 100 N5 29.97S HUNTER AAF CLEAR 74 71 92 CALM 29.94S FORT STEWART CLEAR 69 67 94 N3 29.94S STATESBORO PTCLDY 69 69 100 CALM 29.99R SYLVANIA SUNNY 68 68 100 CALM 30.00S CLAXTON FAIR 68 67 98 CALM 29.98S ...CSRA...CENTRAL AND FAR SOUTHEAST GEORGIA... CITY SKY/WX TMP DP RH WIND PRES REMARKS THOMSON CLEAR 65 64 96 CALM 30.07S AUGUSTA-BUSH CLEAR 67 66 97 CALM 30.00S FOG AUGUSTA-DANIEL CLEAR 73 66 78 CALM 30.02S SWAINSBORO FAIR 66 66 100 CALM 30.00S VIDALIA CLEAR 70 70 100 CALM 29.99S EASTMAN N/A 67 67 100 CALM 30.01F FOG HAZLEHURST FAIR 71 69 93 CALM 29.97S ALMA PTCLDY 70 69 97 CALM 29.96S FOG WAYCROSS CLOUDY 71 68 90 NE3 29.95F JESUP NOT AVBL BAXLEY FAIR 66 66 100 CALM 29.97S BRUNSWICK PTCLDY 75 68 78 N3 29.94F SAINT SIMONS CLOUDY 80 71 74 NE10 29.93F $$ SCZ027-028-034-036>038-045-046-048>050-GAZ119-141-240800- ...LAKE AND SUPPLEMENTAL COASTAL OBSERVATIONS... STATION/POSITION TIME TEMP WIND PRES WAVE SWELL AIR SEA DIR/SP/G HT/PER HT/PER/DIR (UTC) (F) (DEG/KT/KT) (MB) (FT/S) (FT/S/D) WINYAH BAY 0645 73 10/ 5 1015.0S LAKE MURRAY 0650 72 30/ 2/ 4 1015.9S ACE BASIN NERRS 0645 72 CALM 1015.0S FORT PULASKI 0700 79 81 60/ 10/ 12 1014.8 SAPELO ISLAND 0700 77 CALM 1014.0 $$ ANZ835-935-AMZ111-154-330-350-352-354-370-450-454-472-240800- ...C-MAN AND BUOY OBSERVATIONS... STATION/POSITION TIME TEMP WIND PRES WAVE SWELL AIR SEA DIR/SP/G HT/PER HT/PER/DIR (UTC) (F) (DEG/KT/KT) (MB) (FT/S) (FT/S/D) BUOY 41004 0710 80 82 50/ 14/ 17 1013.3 BUOY 41008 0650 81 80 70/ 14/ 16 1013.2R 5/14 3/100/14 FOLLY BEACH CMAN 0700 77 20/ 9/ 12 1015.3F CAPERS NEARSHORE 0708 77 80 70/ 16/ 21 1014.3F FRIPP NEARSHORE 0708 79 60/ 14/ 17 1021.3S STATION/POSITION TIME TEMP WIND PRES WAVE SWELL AIR SEA DIR/SP/G HT/PER HT/PER/DIR (UTC) (F) (DEG/KT/KT) (MB) (FT/S) (FT/S/D) 5E ST. MARYS GA 0700 82 N/A 6/14 3/130/14 FRYING PAN BUOY 0710 79 82 50/ 17/ 21 1014.2 BUOY 41025 0650 73 75 30/ 14/ 17 1015.7F 8/14 7/150/14 CAPE LOOKOUT NC 0700 74 60/ 17/ 19 1015.7F BUOY 41002 0650 78 80 50/ 21/ 25 1010.7F 15/14 13/140/14 BUOY 41010 0710 50/ 17/ 23 1011.0 ST AUGUSTINE FL 0700 81 82 50/ 14/ 15 1012.6R $$

USA.gov is the U.S. government's official web portal to all federal, state and local government web resources and services.